• Processing (Info)

  • MPEC 2022-U362 : 2022 UZ14

    The following Minor Planet Electronic Circular may be linked-to from your own Web pages, but must not otherwise be redistributed electronically.

    A form allowing access to any MPEC is at the bottom of this page.


    Read MPEC 2022-U361 Read MPEC 2022-U363


    M.P.E.C. 2022-U362                             Issued 2022 October 29, 13:14 UT
    
         The Minor Planet Electronic Circulars contain information on unusual
             minor planets and routine data on comets.  They are published
        on behalf of Division F of the International Astronomical Union by the
              Minor Planet Center, Smithsonian Astrophysical Observatory,
                              Cambridge, MA 02138, U.S.A.
    
                 Prepared using the Tamkin Foundation Computer Network
    
                                  MPC@CFA.HARVARD.EDU
                URL https://www.minorplanetcenter.net/    ISSN 1523-6714
    
                                    2022 UZ14                                
    
    
    Observations:
         K22U14Z* C2022 10 28.41061005 02 41.633+05 55 56.24         20.79GVEU362G96
         K22U14Z  C2022 10 28.41580405 02 42.778+05 55 20.10         21.01GVEU362G96
         K22U14Z  C2022 10 28.42100705 02 43.962+05 54 44.50         21.29GVEU362G96
         K22U14Z  C2022 10 28.42620005 02 45.114+05 54 08.53         20.76GVEU362G96
         K22U14Z KC2022 10 28.49827805 03 01.260+05 45 51.40         21.90GVEU362I52
         K22U14Z KC2022 10 28.49975705 03 01.620+05 45 42.20         21.25GVEU362I52
         K22U14Z KC2022 10 28.50125905 03 02.040+05 45 30.90               VEU362I52
         K22U14Z KC2022 10 29.02640905 05 21.17 +04 46 09.1          20.5 GVEU362L01
         K22U14Z KC2022 10 29.03001005 05 21.96 +04 45 45.0          20.8 GVEU362L01
         K22U14Z KC2022 10 29.03349005 05 22.74 +04 45 21.5          21.1 GVEU362L01
         K22U14Z KC2022 10 29.32306805 06 34.20 +04 13 44.1          21.0 VuEU362H21
         K22U14Z KC2022 10 29.32446805 06 36.914+04 13 45.41         21.01GVEU362I52
         K22U14Z KC2022 10 29.32586305 06 34.77 +04 13 26.4          20.9 VuEU362H21
         K22U14Z KC2022 10 29.32591705 06 37.202+04 13 35.98         20.76GVEU362I52
         K22U14Z KC2022 10 29.32736705 06 37.523+04 13 26.33         21.06GVEU362I52
         K22U14Z KC2022 10 29.32865805 06 35.39 +04 13 07.9          21.0 VuEU362H21
         K22U14Z KC2022 10 29.32881805 06 37.832+04 13 17.62         21.72GVEU362I52
         K22U14Z IC2022 10 29.33378 05 06 37.22 +04 12 34.3          21.1 VqEU362H36
         K22U14Z IC2022 10 29.34976 05 06 40.58 +04 10 52.1          20.7 VqEU362H36
         K22U14Z KC2022 10 29.36573 05 06 43.86 +04 09 07.4          21.2 VqEU362H36
    
    Observer details:
    G96 Mt. Lemmon Survey.  Observer D. Rankin.  Measurers E. J. Christensen, D.
        Fay, J. B. Fazekas, D. C. Fuls, A. R. Gibbs, A. D. Grauer, H. Groeller, J.
        K. Hogan, R. A. Kowalski, S. M. Larson, G. J. Leonard, D. Rankin, R. L.
        Seaman, A. Serrano, F. C. Shelly, K. W. Wierzchos.  1.5-m reflector + 10K
        CCD.
    H21 Astronomical Research Observatory, Westfield.  Observer R. Holmes.
        Measurers T. Linder, R. Holmes, L. Horn.  0.76-m f/3.0 astrograph + CCD.
    H36 Sandlot Observatory, Scranton.  Observer G. Hug.  0.56-m f/4.8 .56 meter
        reflector + CCD.
    I52 Steward Observatory, Mt. Lemmon Station.  Observers G. J. Leonard, R. A.
        Kowalski.  Measurers E. J. Christensen, D. Fay, J. B. Fazekas, D. C. Fuls,
        A. R. Gibbs, A. D. Grauer, H. Groeller, J. K. Hogan, R. A. Kowalski, S. M.
        Larson, G. J. Leonard, D. Rankin, R. L. Seaman, A. Serrano, F. C. Shelly,
        K. W. Wierzchos.  1.0-m prime focus + CCD.
    L01 Visnjan Observatory, Tican.  Observers K. Korlevic, L. Poropat.  Measurer
        K. Korlevic.  1.0-m f/2.9 reflector + CCD.
    
    Orbital elements:
    2022 UZ14                                                Earth MOID = 0.0529 AU
    Epoch 2022 Aug. 9.0 TT = JDT 2459800.5                  Veres                   
    M 324.42027              (2000.0)            P               Q                  
    n   0.50367197     Peri.  176.92676     +0.89038906     -0.44739888             
    a   1.5644830      Node   210.10332     +0.41398911     +0.87254691             
    e   0.3306329      Incl.    9.63122     +0.18926265     +0.19620431             
    P   1.96           H   25.09          G   0.15           U   8                  
    Residuals in seconds of arc
    221028 G96  0.0   0.2+    221029 L01  0.1-  0.4+    221029 I52  0.1+  0.4-
    221028 G96  0.2-  0.2-    221029 L01  0.1-  0.2+    221029 H21  0.1+  0.2+
    221028 G96  0.1+  0.1+    221029 L01  0.2+  0.3-    221029 I52  0.2+  0.3+
    221028 G96  0.0   0.1-    221029 H21  0.2-  0.0     221029 H36  0.1-  1.0-
    221028 I52  0.3-  1.0-    221029 I52  0.2+  0.2-    221029 H36  0.2+  0.8+
    221028 I52  0.1+  0.0     221029 H21  0.4-  0.5+    221029 H36  0.3-  0.1+
    221028 I52  1.2+  0.9-    221029 I52  0.1-  0.2-
    
    Ephemeris:
    2022 UZ14                a,e,i = 1.56, 0.33, 10                  q = 1.0472
    Date    TT    R. A. (2000) Decl.     Delta      r    Elong.  Phase     V
    2022 09 29    23 47 21.7 +53 13 20   0.09561 1.0641   128.5    47.4    21.9
    ...
    2022 10 14    03 05 17.1 +40 12 40   0.06537 1.0481   139.4    38.2    20.8
    ...
    2022 10 22    04 25 31.2 +20 19 34   0.06677 1.0477   140.3    37.4    20.8
    ...
    2022 10 28    05 00 50.9 +06 44 33   0.07649 1.0510   137.0    40.1    21.2
    2022 10 29    05 05 12.9 +04 50 22   0.07865 1.0519   136.4    40.6    21.3
    2022 10 30    05 09 13.7 +03 02 44   0.08094 1.0528   135.9    41.1    21.4
    ...
    2022 11 05    05 27 16.5 -05 36 09   0.09671 1.0604   133.3    42.9    21.8
    ...
    2022 11 13    05 40 00.6 -12 45 32   0.1212  1.0750   132.2    43.0    22.3
    ...
    2022 11 28    05 44 48.9 -18 17 06   0.1727  1.1150   134.7    39.0    23.1
    
    M. P. C. Staff               (C) Copyright 2022 MPC           M.P.E.C. 2022-U362
    


    Read MPEC 2022-U361 Read MPEC 2022-U363


    MPEC number:

    Enter an MPEC number in one of the following forms:

    • 1997-B01 (the full form)
    • J97B01 (the packed version of the full form)
    • B01 (the abbreviated form)